Voltar ao catálogo

NAVSTAR 47

USA 150

AtivoNavegaçãoHEO
NORAD 26360·PAYLOAD·🇺🇸 United States

Lançado May 11, 2000 de Cape Canaveral Space Force Station

Loading…

Próximas Passagens (próximas 24 horas)

TLE

AtualizadoSource: Space-Track

Época: Sep 14, 2026, 16:58 UTC

1 26360U 00025A   26257.70708513 -.00000103  00000-0  00000-0 0  9992
2 26360  55.1875  15.7033 0022063 261.3852 116.7946  2.00566985193074

Acompanhe NAVSTAR 47 em tempo real com AllMySat

Download on the App Store